Location: ???????
(55.4362°N, 38.1183°E)
Time: 03:48:28
(UTC+00:00)

Cosmos 1953 - Pass Details

Date: 17 June 2021
Orbit: 538 x 557 km, 82.5° (Epoch: 26 July)

Event Time Altitude Azimuth Distance (km) Brightness Sun altitude
Rises 19:23:34 0° 341° (NNW) 2,756 8.1 -6.8°
Reaches altitude 10° 19:25:54 10° 331° (NNW) 1,857 6.9 -6.9°
Maximum altitude 19:29:31 31° 269° (W) 999 3.9 -7.2°
Drops below altitude 10° 19:33:06 10° 207° (SSW) 1,842 4.7 -7.4°
Enters shadow 19:35:08 - 198° (SSW) 2,616 5.3 -7.5°
